{"data":{"norad_id":27843,"epoch":"2026-05-24T23:31:40.473120Z","epoch_age_seconds":73984,"freshness":"FRESH","line1":"1 27843U 03031D   26144.98032955  .00000057  00000+0  46410-4 0  9999","line2":"2 27843  98.7048 153.0302 0009140 325.2763  34.7817 14.21316910187417","mean_motion":14.2131691,"eccentricity":0.000914,"inclination_deg":98.7048,"raan_deg":153.0302,"arg_perigee_deg":325.2763,"mean_anomaly_deg":34.7817,"bstar":4.641e-5,"rev_number":18741,"period_min":101.31449150211,"perigee_km":814.3226244886,"apogee_km":827.48246877985,"semimajor_km":7199.0395466342,"source":"CELESTRAK","updated_at":"2026-05-25T13:38:24.637777Z"}}